Regional Weather Roundup
Issued by NWS

Home | Current Version | Previous Version | Graphics & Text | Print | Product List | Glossary On
Versions: 1 2 3 4 5 6 7 8 9 10 11 12 13 14 15 16 17 18 19 20 21 22 23 24 25 26 27 28 29 30 31 32 33 34 35 36 37 38 39 40 41 42 43 44 45 46 47 48 49 50
000
ASUS43 KMKX 281100
RWRWI

WISCONSIN REGIONAL WEATHER ROUNDUP
NATIONAL WEATHER SERVICE MILWAUKEE/SULLIVAN WI
600 AM CDT TUE MAR 28 2017

NOTE: "FAIR" INDICATES FEW OR NO CLOUDS BELOW 12,000 FEET WITH NO
SIGNIFICANT WEATHER AND/OR OBSTRUCTIONS TO VISIBILITY.

WIZ001-002-006>008-014>016-023>028-281200-
NORTHWEST WISCONSIN

CITY           SKY/WX    TMP DP  RH WIND       PRES   REMARKS
SUPERIOR ARPT  CLEAR     25  24  99 CALM      30.11S
ASHLAND        PTCLDY    22  21  96 SW3       30.12R
HAYWARD        CLEAR     26  22  84 N3        30.10R
SIREN          CLEAR     25  24  96 CALM      30.10R
CUMBERLAND     CLEAR     28  27  93 CALM      30.09R
RICE LAKE      CLEAR     28  27  99 CALM      30.10R
CHETEK         CLEAR     27  26  99 CALM      30.09S
LADYSMITH      CLEAR     29  28  96 CALM      30.11R
EAU CLAIRE     NOT AVBL
MENOMONIE      FOG       29  29  99 CALM      30.09R VSB 1/4
NEW RICHMOND   CLEAR     29  29 100 CALM      30.09S FOG
OSCEOLA        CLEAR     29  29 100 CALM      30.12R
$$

WIZ003>005-009-010-017-018-281200-
NORTH CENTRAL WISCONSIN

CITY           SKY/WX    TMP DP  RH WIND       PRES   REMARKS
MANITOWISH WTR CLEAR     22  22 100 CALM      30.07R
ARBOR VITAE    CLEAR     26  24  95 CALM      30.07R
WOODRUFF       CLEAR     26  24  95 CALM      30.07R
RHINELANDER    CLEAR     25  23  92 CALM      30.08R
EAGLE RIVER    CLEAR     24  24 100 CALM      30.07R
LAND O LAKES   CLEAR     22  21  96 CALM      30.09R
PHILLIPS       CLEAR     22  22  99 CALM      30.08R
TOMAHAWK       CLEAR     22  20  94 CALM      30.09R
MEDFORD        CLEAR     27  27  98 CALM      30.07R FOG
MERRILL        CLEAR     23  23  99 CALM      30.09R
$$

WIZ029-030-035-036-043>047-281200-
CENTRAL WISCONSIN

CITY           SKY/WX    TMP DP  RH WIND       PRES   REMARKS
WAUSAU         CLEAR     28  27  96 NW5       30.08R WCI  23
MOSINEE        CLOUDY    34  34 100 N3        30.09R
MARSHFIELD     CLEAR     29  27  92 CALM      30.07R FOG
STEVENS POINT  CLOUDY    36  36 100 CALM      30.08R
WAUPACA        CLOUDY    42  37  82 N3        30.08R
WAUTOMA        CLOUDY    40  37  89 CALM      30.09R
WISC RAPIDS    CLOUDY    40  38  93 CALM      30.10R
CAMP DOUGLAS   NOT AVBL
$$

WIZ011>013-019>022-031-037>040-048>050-281200-
NORTHEAST WISCONSIN

CITY           SKY/WX    TMP DP  RH WIND       PRES   REMARKS
ANTIGO         MOCLDY    28  28 100 N3        30.08R FOG
SHAWANO        FOG       31  29  94 CALM      30.08R VSB 1/2
OCONTO         PTCLDY    28  27  99 CALM      30.08R
STURGEON BAY   CLEAR     31  31 100 NW5       30.06R WCI  26
GREEN BAY      CLEAR     34  34 100 N5        30.08R WCI  30
MANITOWOC      NOT AVBL
APPLETON       PTCLDY    34  34 100 VRB3      30.05R
CLINTONVILLE   FOG       32  32 100 CALM      30.07R VSB 1/4
OSHKOSH        CLEAR     37  34  89 NW3       30.08R
$$

WIZ032>034-041-042-053>061-281200-
SOUTHWEST WISCONSIN

CITY           SKY/WX    TMP DP  RH WIND       PRES   REMARKS
LA CROSSE      PTCLDY    35  33  92 CALM      30.09R FOG
SPARTA         CLOUDY    38  37  97 CALM      30.09R
VIROQUA        CLOUDY    40  40  99 CALM      30.06S
BOSCOBEL       CLOUDY    45  41  86 CALM      30.08R
PRAIRIE DU CHI CLOUDY    44  41  91 CALM      30.06S
PLATTEVILLE    CLOUDY    45  45 100 N9        30.05R VSB 1
$$

WIZ056-057-062-063-064-067-068-281200-
SOUTH CENTRAL WISCONSIN

CITY           SKY/WX    TMP DP  RH WIND       PRES   REMARKS
REEDSBURG      CLOUDY    40  40 100 NE3       30.07R FOG
BARABOO/DELLS  CLOUDY    39  38  97 NE3       30.07R FOG
LONE ROCK      CLOUDY    44  40  85 N5        30.08R
MINERAL POINT  CLOUDY    45  45 100 NE7       30.05R FOG
MADISON        CLOUDY    41  38  89 NE7       30.07R
MIDDLETON      CLOUDY    42  41  96 NE3       30.07R
WATERTOWN      CLOUDY    40  38  94 N5        30.06R
MONROE         FOG       41  41 100 NE7       30.05R VSB 1/4
JANESVILLE     CLOUDY    41  41 100 NE5       30.06R FOG
$$

WIZ051-052-058>065-066-070>072-281200-
SOUTHEAST WISCONSIN

CITY           SKY/WX    TMP DP  RH WIND       PRES   REMARKS
MILWAUKEE      CLOUDY    40  36  86 N7        30.06R
WAUKESHA       CLOUDY    37  36  93 N6        30.06R WCI  33
MILWAUKEE/TIMM CLOUDY    37  34  87 N5        30.06R WCI  34
RACINE         CLOUDY    39  35  86 N10       30.07R WCI  32
KENOSHA        CLOUDY    39  35  86 N9        30.05R WCI  33
FOND DU LAC    CLEAR     37  34  89 CALM      30.08R FOG
SHEBOYGAN      CLOUDY    40  35  83 N7        30.06R
WEST BEND      CLOUDY    37  36  93 N5        30.05R WCI  34
JUNEAU         CLEAR     37  36  94 CALM      30.07R
$$

LSZ147-162-281200-
LAKE SUPERIOR

STATION/POSITION TIME  TEMP    WIND        PRES    WAVE
                       AIR SEA DIR/SP/G            HT/PER
                 (UTC) (F)     (DEG/KT/KT) (MB)    (FT/S)
DEVILS ISLAND    1000   34     220/  7/  7 1020.0R
PORT WING        1040   25     160/  2/  4 1020.0R
SAXON HARBOR     1040   26     180/  2/  3 1019.3R
$$

LMZ867-665-643>646-281200-
LAKE MICHIGAN

STATION/POSITION TIME  TEMP    WIND        PRES    WAVE
                       AIR SEA DIR/SP/G            HT/PER
                 (UTC) (F)     (DEG/KT/KT) (MB)    (FT/S)
CHAMBERS ISLAND  0940   32     300/  3/  6 1017.6R
NORTHPORT PIER   0940   33     300/  5/  6 1017.6R
SISTER BAY       1006   31        CALM       N/A
KEWAUNEE LAKESHO 1024   36     330/  2/  5 1017.5
SHEBOYGAN LAKESH 1000   40     330/  8/  9 1017.7R
PORT WASHINGTON  1030   40      10/  3/  6 1018.6R
MILWAUKEE LAKESH 1030   39     360/  8/ 12   N/A
KENOSHA   LAKESH 1000   39     360/ 12/ 16 1017.3
$$

TC  - TEMPERATURE IN CELSIUS
VSB - VISIBILITY IN STATUTE MILES
WCI - WIND CHILL INDEX
HX  - HEAT INDEX





USA.gov is the U.S. government's official web portal to all federal, state and local government web resources and services.